EDT,Max TemperatureF,Mean TemperatureF,Min TemperatureF,Max Dew PointF,MeanDew PointF,Min DewpointF,Max Humidity, Mean Humidity, Min Humidity, Max Sea Level PressureIn, Mean Sea Level PressureIn, Min Sea Level PressureIn, Max VisibilityMiles, Mean VisibilityMiles, Min VisibilityMiles, Max Wind SpeedMPH, Mean Wind SpeedMPH, Max Gust SpeedMPH,PrecipitationIn, CloudCover, Events, WindDirDegrees
2011-9-1,83,74,65,70,66,64,100,83,65,30.15,30.07,29.98,10,6,1,23,9,35,1.30,7,Rain-Thunderstorm,144
2011-9-2,89,77,64,76,71,64,100,81,61,30.03,29.98,29.92,7,4,1,8,4,22,0.00,3,Fog,153
2011-9-3,93,81,69,73,69,63,100,69,38,29.99,29.92,29.86,10,6,2,13,5,18,0.00,1,Fog,207
2011-9-4,78,72,66,70,66,64,97,82,67,29.91,29.85,29.81,10,7,2,29,7,41,0.31,8,Rain-Thunderstorm,207
2011-9-5,67,62,56,65,57,50,100,84,67,29.99,29.89,29.82,10,9,2,18,9,23,0.13,8,Rain,349
2011-9-6,65,60,55,54,53,51,86,77,67,30.07,30.03,29.99,10,10,10,16,9,21,0.02,8,Rain,36
2011-9-7,68,63,57,63,59,55,100,94,87,30.03,29.96,29.91,10,8,1,13,9,17,0.08,8,Rain,55
2011-9-8,75,68,61,66,62,60,100,84,68,29.99,29.95,29.92,10,8,2,10,6,14,T,7,Fog-Rain,81
2011-9-9,74,68,61,67,64,62,100,90,79,29.96,29.92,29.89,10,6,0,16,3,20,T,7,Fog-Rain,331
2011-9-10,74,66,58,65,63,60,100,84,68,30.05,29.98,29.92,10,5,0,10,3,13,1.96,7,Fog-Rain-Thunderstorm,350
2011-9-11,76,67,58,63,60,57,100,84,68,30.09,30.04,29.99,10,5,0,12,4,15,T,6,Fog-Rain-Thunderstorm,224
2011-9-12,79,68,57,63,59,56,100,76,52,30.07,30.01,29.96,10,9,4,14,6,17,0.00,3,Fog,207
2011-9-13,81,72,63,66,62,59,93,72,51,29.96,29.88,29.82,10,8,2,22,10,31,0.09,4,Rain-Thunderstorm,227
2011-9-14,73,64,54,63,57,50,100,77,53,30.02,29.96,29.90,10,6,2,15,5,22,0.04,6,Fog-Rain,348
2011-9-15,58,49,40,55,46,37,100,74,47,30.31,30.13,30.00,10,8,2,28,9,35,0.35,6,Rain,350
2011-9-16,60,49,38,45,42,36,100,70,39,30.40,30.35,30.31,10,10,10,9,3,13,0.00,7,,24
2011-9-17,65,55,45,47,44,41,86,65,44,30.37,30.34,30.31,10,10,10,14,6,16,0.00,6,,80
2011-9-18,69,57,44,51,47,42,93,73,52,30.38,30.31,30.23,10,10,10,14,8,17,0.00,3,,117
2011-9-19,62,56,50,59,54,47,97,85,72,30.22,30.07,29.99,10,7,1,15,9,23,0.38,7,Rain,162
2011-9-20,73,67,61,62,60,57,100,81,61,30.13,30.08,29.99,10,6,1,10,3,16,0.05,7,Rain,195
2011-9-21,78,69,60,66,62,60,100,78,56,30.11,30.05,29.98,10,7,0,16,7,22,0.25,6,Fog-Rain-Thunderstorm,164
2011-9-22,77,68,58,64,58,49,100,73,46,30.12,30.07,30.01,10,8,2,13,5,17,0.00,6,,244
2011-9-23,62,58,53,57,54,48,100,82,64,30.09,29.98,29.92,10,7,1,18,6,23,0.17,7,Rain,339
2011-9-24,68,60,52,55,54,51,100,78,55,30.11,30.06,30.02,10,6,1,9,4,10,0.00,6,Fog,136
2011-9-25,78,65,51,65,60,51,100,80,60,30.08,30.02,29.93,10,9,4,15,8,22,T,5,Rain-Thunderstorm,113
2011-9-26,80,72,63,65,63,61,93,76,58,29.93,29.86,29.78,10,7,2,22,10,29,1.74,6,Rain-Thunderstorm,134
2011-9-27,70,62,53,63,55,52,100,78,55,29.93,29.89,29.84,10,7,2,16,3,23,0.05,7,Rain,203
2011-9-28,71,61,50,57,53,49,93,73,53,29.89,29.85,29.80,10,9,5,16,6,23,0.01,7,Rain,158
2011-9-29,61,57,52,55,52,49,100,84,67,29.78,29.72,29.58,10,9,5,21,8,25,0.06,7,Fog-Rain,209
2011-9-30,57,51,44,55,48,41,96,87,77,29.82,29.68,29.58,10,8,1,22,12,31,0.09,8,Rain,239